Hourly Weather Roundup
Issued by NWS Central Illinois

Home | Current Version | Previous Version | Text Only | Print | Product List | Glossary On
Versions: 1 2 3 4 5 6 7 8 9 10 11 12 13 14 15 16 17 18 19 20 21 22 23 24 25 26 27 28 29 30 31 32 33 34 35 36 37 38 39 40 41 42 43 44 45 46 47 48 49 50
000
NZUS43 KILX 192210
HWRILX

AREA WEATHER ROUNDUP
NATIONAL WEATHER SERVICE, LINCOLN IL
400 PM CST THU JAN 19 2017


CITY           SKY/WX    TMP DP  RH WIND       PRES   REMARKS
BLOOMINGTON    LGT RAIN  41  39  93 E13       29.80F FOG     WCI  34
CHAMPAIGN      RAIN      42  39  89 E13       29.80F FOG
DANVILLE       HVY RAIN  41  40  97 NE7       29.80F
DECATUR        LGT RAIN  43  42  97 E13       29.76F
EFFINGHAM      FOG       44  44 100 E9        29.77F VSB 1
FLORA          CLOUDY    46  45  95 E6        29.75F FOG
GALESBURG      DRIZZLE   40  40 100 E8        29.77S WCI  35
JACKSONVILLE   CLOUDY    44  43  97 E10       29.73F FOG
LACON          DRIZZLE   38  38  99 E8        29.80S WCI  33
LAWRENCEVILLE  CLOUDY    47  45  93 E9        29.78F FOG
LITCHFIELD     CLOUDY    43  43  99 SE9       29.73F FOG
$$


CITY           SKY/WX    TMP DP  RH WIND       PRES   REMARKS
LINCOLN        RAIN      43  43 100 E12       29.77F
MACOMB         LGT RAIN  42  42  99 E12       29.77F
MATTOON        LGT RAIN  44  41  89 E7        29.77F
MT CARMEL AP   CLOUDY    46  44  91 E12       29.77F
OLNEY-NOBLE AP CLOUDY    45  45 100 E8        29.76F FOG
PARIS          DRIZZLE   43  42  95 E8        29.81F
PEORIA         CLOUDY    42  41  96 E7        29.79F FOG
PONTIAC        LGT RAIN  40  40 100 E8        29.84S
RANTOUL        LGT RAIN  42  42  97 E10       29.82F
SPRINGFIELD    LGT RAIN  45  43  93 E9        29.76F FOG
TAYLORVILLE    DRIZZLE   43  42  98 SE7       29.76F
$$

...REGIONAL REPORTS...


CITY           SKY/WX    TMP DP  RH WIND       PRES   REMARKS
CHICAGO O`HARE CLOUDY    41  36  82 E6        29.87F HAZE
KANKAKEE       RAIN      41  39  95 E5        29.86F
MOLINE         LGT RAIN  40  37  89 E9        29.79F FOG     WCI  34
MOUNT STERLING CLOUDY    43  42  97 E7        29.73S FOG
MOUNT VERNON   LGT RAIN  46  46 100 E5        29.74F FOG
PITTSFIELD     CLOUDY    45  44  99 E6        29.73S FOG
QUINCY         CLOUDY    45  44  97 SE7       29.72S FOG
ROCKFORD       LGT RAIN  39  36  89 SE7       29.87F FOG     WCI  34
$$


CITY           SKY/WX    TMP DP  RH WIND       PRES   REMARKS
BURLINGTON     CLOUDY    41  41 100 E6        29.73F FOG
CEDAR RAPIDS   LGT RAIN  36  36 100 E9        29.75F VSB 1   WCI  29
DES MOINES     FOG       39  38  96 E7        29.71R VSB 1/2 WCI  34
KIRKSVILLE     FOG       44  44 100 NE3       29.71S VSB 1/4
OTTUMWA        LGT RAIN  39  39 100 E9        29.72F FOG     WCI  33
ST LOUIS       FOG       47  45  93 E9        29.72S VSB 1/2
$$


CITY           SKY/WX    TMP DP  RH WIND       PRES   REMARKS
TERRE HAUTE    RAIN      44  40  85 E8        29.81F FOG
EVANSVILLE     CLOUDY    50  47  89 E6        29.78F
INDIANAPOLIS   CLOUDY    46  39  76 E10       29.83F
LAFAYETTE      CLOUDY    42  40  92 E13       29.84F FOG
MADISON        CLOUDY    36  34  92 SE5       29.86F FOG     WCI  32
MILWAUKEE      CLOUDY    37  34  89 CALM      29.89F FOG
$$





USA.gov is the U.S. government's official web portal to all federal, state and local government web resources and services.